Regional Weather Roundup
Issued by NWS

Home | Current Version | Previous Version | Text Only | Print | Product List | Glossary Off
Versions: 1 2 3 4 5 6 7 8 9 10 11 12 13 14 15 16 17 18 19 20 21 22 23 24 25 26 27 28 29 30 31 32 33 34 35 36 37 38 39 40 41 42 43 44 45 46 47 48 49 50

000
ASUS43 KIND 210959
RWRIN

WEATHER ROUNDUP FOR INDIANA
NATIONAL WEATHER SERVICE INDIANAPOLIS IN
600 AM EDT SAT APR 21 2018

NOTE: "FAIR" INDICATES FEW OR NO CLOUDS BELOW 12,000 FEET WITH NO
SIGNIFICANT WEATHER AND/OR OBSTRUCTIONS TO VISIBILITY.

* - STATION DOES NOT REPORT WEATHER SUCH AS PRECIPITATION OR FOG.

+ - STATION NOT QUALITY CONTROLLED BY THE NATIONAL WEATHER SERVICE.
    USE DATA WITH CAUTION...ESPECIALLY DEWPOINT AND RELATIVE
    HUMIDITY OBSERVATIONS.

INZ001>003-010>013-019-020-211100-
NORTHWEST INDIANA

CITY           SKY/WX    TMP DP  RH WIND       PRES   REMARKS
GARY /AIRPORT/ MOCLDY    36  30  80 CALM      30.45R
KNOX *+        FAIR      32  28  86 CALM      30.44R
MONTICELLO +   FAIR      38  26  64 CALM      30.42R
RENSSELAER +   FAIR      37  21  52 NE5       30.43R WCI  34

$$

LMZ046-743>745-211100-
SOUTHERN LAKE MICHIGAN

STATION/POSITION TIME  TEMP    WIND        PRES    WAVE
                       AIR SEA DIR/SP/G            HT
                 (UTC) (F)     (DEG/KT/KT) (MB)    (FT)
BURNS HARBOR     0940   43      40/  4/  5 1031.2R
MICHIGAN CITY    0930   41      60/  3/  3   N/A

$$

INZ004-005-014>016-021>024-211100-
NORTH CENTRAL INDIANA

CITY           SKY/WX    TMP DP  RH WIND       PRES   REMARKS
GOSHEN         FAIR      35  26  69 CALM      30.43S
PERU/GRISSOM   FAIR     N/A N/A N/A CALM        N/A
ROCHESTER +    FAIR      34  30  86 CALM      30.43S
SOUTH BEND     FAIR      30  19  63 CALM      30.44R
WARSAW +       FAIR      32  28  86 CALM      30.43S

$$

INZ006>009-017-018-025>027-211100-
NORTHEAST INDIANA

CITY           SKY/WX    TMP DP  RH WIND       PRES   REMARKS
ANGOLA *+      FAIR      36  25  64 CALM      30.43S
FORT WAYNE     FAIR      35  26  69 E5        30.45R WCI  31

$$

INZ028-029-035-036-043>045-051>053-211100-
WEST CENTRAL INDIANA

CITY           SKY/WX    TMP DP  RH WIND       PRES   REMARKS
GREENCASTLE +  FAIR      39  27  60 CALM      30.40S
LAFAYETTE      FAIR      41  28  60 NE3       30.42R
TERRE HAUTE    FAIR      40  29  64 NE5       30.39R WCI  37

$$

INZ030>032-037>040-046>048-054>057-064-065-211100-
CENTRAL INDIANA

CITY           SKY/WX    TMP DP  RH WIND       PRES   REMARKS
INDIANAPOLIS   FAIR      44  26  49 E7        30.40S
-EAGLE CREEK   FAIR      41  26  55 E3        30.40S
KOKOMO +       FAIR      33  29  85 NE5       30.43S WCI  29
MT COMFORT *+  FAIR      39  30  70 E8        30.41S WCI  34
SHELBYVILLE    FAIR      41  27  57 E10       30.39F
ZIONSVILLE +   FAIR      37  29  73 E5        30.41S WCI  33

$$

INZ033-034-041-042-049-050-058-059-211100-
EAST CENTRAL INDIANA

CITY           SKY/WX    TMP DP  RH WIND       PRES   REMARKS
MUNCIE         FAIR      37  27  67 CALM      30.42S
RICHMOND +     FAIR      32  28  86 E8        30.42S WCI  25

$$

INZ060-061-067>069-081>083-085>088-211100-
SOUTHWEST INDIANA

CITY           SKY/WX    TMP DP  RH WIND       PRES   REMARKS
EVANSVILLE     FAIR      44  29  55 NE5       30.35S
HUNTINGBURG +  FAIR      44  27  51 E6        30.36R

$$

INZ062-063-066-070>080-084-089>092-211100-
SOUTH CENTRAL AND SOUTHEAST INDIANA

CITY           SKY/WX    TMP DP  RH WIND       PRES   REMARKS
BLOOMINGTON    FAIR      41  26  55 E5        30.38S
FRENCH LICK *+ FAIR      41  23  48 NE6       30.37R
SEYMOUR +      FAIR      41  28  60 E7        30.39S

$$





USA.gov is the U.S. government's official web portal to all federal, state and local government web resources and services.